Location: Arrington
(35.8681°N, 86.7092°W)
Time: 12:16:56
(UTC+00:00)

ATLAS 2AS CENTAUR R/B - Pass Details

Date: 26 February 2020
Orbit: 929 x 1283 km, 63.7° (Epoch: 03 April)

Event Time Altitude Azimuth Distance (km) Brightness Sun altitude
Rises 10:11:23 0° 335° (NNW) 4,177 5.6 -27.1°
Reaches altitude 10° 10:14:56 10° 349° (N) 3,161 5.1 -26.3°
Maximum altitude 10:20:52 24° 41° (NE) 2,181 4.8 -25.2°
Drops below altitude 10° 10:26:26 10° 93° (E) 2,952 6.1 -24.0°
Sets 10:29:35 0° 107° (ESE) 3,844 6.7 -23.4°
